Location: Athabasca
(54.7194°N, 113.2858°W)
Time: 11:05:27
(UTC+00:00)

PRISM - Pass Details

Date: 01 December 2023
Orbit: 515 x 532 km, 98.2° (Epoch: 04 March)

Event Time Altitude Azimuth Distance (km) Brightness Sun altitude
Exits shadow 00:38:03 13° 38° (NE) 1,638 ? -11.5°
Drops below altitude 10° 00:39:11 10° 21° (NNE) 1,830 ? -11.7°
Sets 00:42:09 0° 357° (N) 2,721 ? -12.1°
